Flag Weather past 2 weeks in Lloydminster, Alberta, Canada

Now
30 °F

Overcast.


Feels Like: 22 °F
Forecast: 28 / 33 °F
Wind: 9 mph from Southwest

Location: Lloydminister

Current Time: Nov 20, 2014 at 8:16:47 PM

Latest Report: Nov 20, 2014 at 7:00 PM


Visibility: 15 mi

Pressure: 29.61 "Hg

Humidity: 80%

Dew point: 25 °F

Location of LloydminsterLocation

Historic Weather in Lloydminster — Graph

°F

Lloydminster temperature yesterday

Maximum temperature yesterday: 16 °F (at 12:00 AM)
Minimum temperature yesterday: 7 °F (at 6:00 PM)
Average temperature yesterday: 13 °F

Past Weeks' High & Low Weather Summary

 TemperatureHumidityPressure
High37 °F (Nov 6, 2:00 PM)100% (Nov 6, 10:00 PM)30.89 "Hg (Nov 6, 10:00 PM)
Low-8 °F (Nov 14, 6:00 AM)56% (Nov 9, 1:00 PM)29.55 "Hg (Nov 6, 6:00 PM)
Average14 °F80%30.32 "Hg
* Reported Nov 5 7:00 PM — Nov 20 7:00 PM, Lloydminster, Weather by CustomWeather, © 2014

Note: Actual official high and low records may vary slightly from our data, if they occured in-between our weather recording intervals... More about our weather records

Advertising

Lloydminster weather history for previous 24 hours

 ConditionsComfort  
Time TempWeatherWind HumidityBarometerVisibility
7:00 PM
Nov 20
30 °FOvercast.9 mph80%29.61 "Hg15 mi
6:00 PM28 °FMostly cloudy.10 mph86%29.64 "Hg15 mi
5:00 PM28 °FOvercast.8 mph80%29.66 "Hg15 mi
4:00 PM28 °FBroken clouds.7 mph80%29.69 "Hg15 mi
3:00 PM30 °FPartly sunny.9 mph75%29.69 "Hg15 mi
2:00 PM30 °FPartly sunny.10 mph75%29.71 "Hg15 mi
1:00 PM30 °FPartly sunny.13 mph75%29.73 "Hg15 mi
12:00 PM28 °FOvercast.13 mph80%29.77 "Hg15 mi
11:00 AM27 °FLow clouds.10 mph86%29.80 "Hg12 mi
10:00 AM27 °FMore clouds than sun.13 mph86%29.80 "Hg10 mi
9:00 AM25 °FLow clouds.9 mph93%29.82 "Hg8 mi
8:00 AM25 °FLight snow. Low clouds.13 mph86%29.84 "Hg8 mi
7:00 AM25 °FLow clouds.12 mph86%29.86 "Hg15 mi
6:00 AM23 °FLow clouds.13 mph93%29.88 "Hg9 mi
5:00 AM21 °FLow clouds.8 mph93%29.92 "Hg9 mi
3:00 AM18 °FLow clouds.7 mph93%29.96 "Hg9 mi
2:00 AM18 °FLow clouds.5 mph86%29.98 "Hg9 mi
1:00 AM16 °FLow clouds.8 mph86%30.00 "Hg9 mi
12:00 AM14 °FLow clouds.8 mph92%30.04 "Hg9 mi
11:00 PM
Nov 19
14 °FLow clouds.9 mph85%30.06 "Hg7 mi
10:00 PM12 °FLow clouds.6 mph85%30.08 "Hg9 mi
9:00 PM12 °FLight snow. Low clouds.No wind92%30.10 "Hg15 mi
8:00 PM12 °FLight snow. Low clouds.6 mph85%30.11 "Hg8 mi
Weather by CustomWeather, © 2014

See weather overviewHow to use our weather pages